Regional Weather Roundup
Issued by NWS Kansas City/Pleasant Hill, MO

Home | Current Version | Previous Version | Graphics & Text | Print | Product List | Glossary Off
Versions: 1 2 3 4 5 6 7 8 9 10 11 12 13 14 15 16 17 18 19 20 21 22 23 24 25 26 27 28 29 30 31 32 33 34 35 36 37 38 39 40 41 42 43 44 45 46 47 48 49 50

000
ASUS43 KEAX 180510
RWREAX

WEATHER ROUNDUP FOR EASTERN KANSAS AND NORTHWEST MISSOURI
NATIONAL WEATHER SERVICE KANSAS CITY/PLEASANT HILL MO
1100 PM CST WED JAN 17 2018

KSZ040-057-103>105-MOZ028-029-037-043-180600-
...KANSAS CITY METROPOLITAN AREA...

CITY           SKY/WX    TMP DP  RH WIND       PRES   REMARKS
K.C. INTL      CLOUDY    17  10  74 SW13      30.40F WCI   4
K.C. DOWNTOWN  CLOUDY    20  11  68 SW8       30.44F WCI  10
LEES SUMMIT    CLOUDY    16  10  77 SW14      30.43F WCI   2
OLATHE - IXD   CLOUDY    12   8  84 S6        30.43F WCI   3
OLATHE - OJC   CLOUDY    13   9  84 S7        30.43F WCI   3
LAWRENCE       CLOUDY    14   9  80 SE3       30.43F

$$

MOZ001>008-011>017-020>025-030>033-038>040-044>046-053-054-180600-
...NORTHERN AND CENTRAL MISSOURI...

CITY           SKY/WX    TMP DP  RH WIND       PRES   REMARKS
ST. JOSEPH     CLOUDY    14  10  84 S7        30.40F WCI   4
MOSBY          CLOUDY    18  10  73 S3        30.44F
WARRENSBURG    CLOUDY    14   9  79 S6        30.47S WCI   5
WHITEMAN AFB   CLOUDY    15   6  68 SW12      30.41F WCI   2
CLINTON        CLOUDY    14   7  73 MISG      30.49F
SEDALIA        CLEAR     17  11  77 SW12      30.46F WCI   4
WARSAW         NOT AVBL
CHILLICOTHE      N/A     15   8  73 S7        30.43F WCI   5
KIRKSVILLE     CLOUDY    16  11  80 SW13      30.38F WCI   2

$$

MOZ041-047>049-056>058-063>065-088>090-097-180600-
...EASTERN AND SOUTHERN MISSOURI...

CITY           SKY/WX    TMP DP  RH WIND       PRES   REMARKS
ST. LOUIS INTL CLOUDY    19   9  65 SW7       30.47F WCI  10
SPIRIT OF STL  CLOUDY    21   9  59 SW12      30.47F WCI   9
COLUMBIA       CLEAR     15   8  73 SW8       30.46F WCI   4
JEFFERSON CITY CLOUDY    19   8  62 CALM      30.50F
ROLLA          CLOUDY    16   7  67 SW12      30.46F WCI   3
OSAGE BEACH    CLEAR     12   4  70 S5        30.49F WCI   4
SPRINGFIELD    CLOUDY    15   6  67 S9        30.46F WCI   3
BRANSON        CLOUDY    18   9  68 CALM      30.51S
JOPLIN         CLOUDY    15   7  70 S8        30.50F WCI   4
WEST PLAINS    CLOUDY    15   6  67 SW5       30.50F WCI   8

$$

IAZ060-094-KSZ022-034>040-054-083-096-NEZ052-066-093-180600-
...KANSAS...SOUTHEAST NEBRASKA AND IOWA...

CITY           SKY/WX    TMP DP  RH WIND       PRES   REMARKS
TOPEKA         CLOUDY    18  12  77 S3        30.41F
MANHATTAN      CLOUDY    18   9  68 S6        30.38F WCI  10
EMPORIA        CLOUDY    16  10  77 S8        30.42F WCI   5
CHANUTE        CLOUDY    16   8  71 S9        30.48F WCI   4
WICHITA        CLOUDY    19   8  62 S9        30.41F WCI   8
OMAHA          CLOUDY    15   9  76 SE9       30.29F WCI   3
LINCOLN        CLOUDY    21  12  68 SW9       30.29F WCI  11
FALLS CITY     CLEAR     20  12  71 SW10      30.35F WCI   9
LAMONI         CLOUDY    17   9  70 SW16      30.32F WCI   2
DES MOINES     CLOUDY    20  10  65 SW13      30.27F WCI   7

$$




USA.gov is the U.S. government's official web portal to all federal, state and local government web resources and services.